Omskiy-107 — UBWE3 — position and weather

sailwx.info

Track history (hours):
 
Tides and Currents Weather Stations Pressure Air Temp Water Temp Dewpoint Dewpoint Depression Visibility Wind Speed Wind Dir Waves Ship Positions

Omskiy-107

Last reported at 2014-Jul-29 04:32 UTC. Time now 2014-Jul-29 04:39 UTC.
Position N 46°50' E 031°57'.

Length 108 m; draft 2.2 m.

Type: Cargo ship. MMSI: 273343220.

Date/timePositionNaut miles runAvg speedWind from/ knotsBaromVisibWave heightAir tempDewpointWater temp
2014-Jul-29 04:32N 46°50' E 031°57'0 0.0
2014-Jul-29 03:32N 46°50' E 031°57'0 0.0
2014-Jul-29 02:32N 46°50' E 031°57'0 0.0
2014-Jul-29 01:32N 46°50' E 031°57'0 0.0
2014-Jul-29 00:32N 46°50' E 031°57'0 0.0
2014-Jul-28 23:32N 46°50' E 031°57'0 0.0
2014-Jul-28 22:32N 46°50' E 031°57'0 0.0
2014-Jul-28 21:32N 46°50' E 031°57'0 0.0
2014-Jul-28 20:29N 46°50' E 031°57'0 0.0
2014-Jul-28 19:32N 46°50' E 031°57'0 0.0
2014-Jul-28 18:32N 46°50' E 031°57'0 0.0
2014-Jul-28 17:32N 46°50' E 031°57'0 0.0
2014-Jul-28 16:32N 46°50' E 031°57'0 0.0
2014-Jul-28 15:32N 46°50' E 031°57'0 0.0
2014-Jul-28 14:32N 46°50' E 031°57'0 0.0
2014-Jul-28 13:32N 46°50' E 031°57'0 0.0
2014-Jul-28 12:32N 46°50' E 031°57'0 0.0
2014-Jul-28 11:32N 46°50' E 031°57'0 0.0
2014-Jul-28 10:32N 46°50' E 031°57'0 0.0
2014-Jul-28 09:32N 46°50' E 031°57'0 0.0
2014-Jul-28 08:29N 46°50' E 031°57'0 0.0
2014-Jul-28 07:32N 46°50' E 031°57'1 0.5
2014-Jul-28 06:33N 46°50' E 031°56'1 0.8
2014-Jul-28 05:32N 46°50' E 031°55'0 0.0
2014-Jul-28 04:29N 46°50' E 031°55'0 0.0
2014-Jul-28 03:32N 46°50' E 031°55'0 0.0
2014-Jul-28 02:32N 46°50' E 031°55'0 0.0
2014-Jul-28 01:32N 46°50' E 031°55'0 0.0
2014-Jul-28 00:32N 46°50' E 031°55'0 0.0
2014-Jul-27 23:32N 46°50' E 031°55'0 0.0
2014-Jul-27 22:32N 46°50' E 031°55'0 0.0
2014-Jul-27 21:32N 46°50' E 031°55'0 0.0
2014-Jul-27 20:32N 46°50' E 031°55'0 0.1
2014-Jul-27 19:32N 46°50' E 031°55'0 0.1
2014-Jul-27 18:32N 46°50' E 031°55'0 0.1
2014-Jul-27 17:32N 46°50' E 031°55'0 0.0
2014-Jul-27 15:11N 46°50' E 031°55'0 0.0
2014-Jul-27 14:32N 46°50' E 031°55'0 0.0
2014-Jul-27 13:29N 46°50' E 031°55'5 5.2
2014-Jul-27 12:33N 46°46' E 031°54'52 5.1
2014-Jul-27 02:22N 45°59' E 031°22'8 8.5
2014-Jul-27 01:22N 45°52' E 031°31'9 7.6
2014-Jul-27 00:09N 45°46' E 031°39'256 8.6
2014-Jul-25 18:28N 42°27' E 035°24'  
2014-Jul-21 04:34N 44°29' E 036°27'  
Track history (hours):
 
Tides and Currents Weather Stations Pressure Air Temp Water Temp Dewpoint Dewpoint Depression Visibility Wind Speed Wind Dir Waves Ship Positions

Omskiy-107

Last reported at 2014-Jul-29 04:32 UTC. Time now 2014-Jul-29 04:39 UTC.
Position N 46°50' E 031°57'.

Length 108 m; draft 2.2 m.

Type: Cargo ship. MMSI: 273343220.

Date/timePositionNaut miles runAvg speedWind from/ knotsBaromVisibWave heightAir tempDewpointWater temp
2014-Jul-29 04:32N 46°50' E 031°57'0 0.0
2014-Jul-29 03:32N 46°50' E 031°57'0 0.0
2014-Jul-29 02:32N 46°50' E 031°57'0 0.0
2014-Jul-29 01:32N 46°50' E 031°57'0 0.0
2014-Jul-29 00:32N 46°50' E 031°57'0 0.0
2014-Jul-28 23:32N 46°50' E 031°57'0 0.0
2014-Jul-28 22:32N 46°50' E 031°57'0 0.0
2014-Jul-28 21:32N 46°50' E 031°57'0 0.0
2014-Jul-28 20:29N 46°50' E 031°57'0 0.0
2014-Jul-28 19:32N 46°50' E 031°57'0 0.0
2014-Jul-28 18:32N 46°50' E 031°57'0 0.0
2014-Jul-28 17:32N 46°50' E 031°57'0 0.0
2014-Jul-28 16:32N 46°50' E 031°57'0 0.0
2014-Jul-28 15:32N 46°50' E 031°57'0 0.0
2014-Jul-28 14:32N 46°50' E 031°57'0 0.0
2014-Jul-28 13:32N 46°50' E 031°57'0 0.0
2014-Jul-28 12:32N 46°50' E 031°57'0 0.0
2014-Jul-28 11:32N 46°50' E 031°57'0 0.0
2014-Jul-28 10:32N 46°50' E 031°57'0 0.0
2014-Jul-28 09:32N 46°50' E 031°57'0 0.0
2014-Jul-28 08:29N 46°50' E 031°57'0 0.0
2014-Jul-28 07:32N 46°50' E 031°57'1 0.5
2014-Jul-28 06:33N 46°50' E 031°56'1 0.8
2014-Jul-28 05:32N 46°50' E 031°55'0 0.0
2014-Jul-28 04:29N 46°50' E 031°55'0 0.0
2014-Jul-28 03:32N 46°50' E 031°55'0 0.0
2014-Jul-28 02:32N 46°50' E 031°55'0 0.0
2014-Jul-28 01:32N 46°50' E 031°55'0 0.0
2014-Jul-28 00:32N 46°50' E 031°55'0 0.0
2014-Jul-27 23:32N 46°50' E 031°55'0 0.0
2014-Jul-27 22:32N 46°50' E 031°55'0 0.0
2014-Jul-27 21:32N 46°50' E 031°55'0 0.0
2014-Jul-27 20:32N 46°50' E 031°55'0 0.1
2014-Jul-27 19:32N 46°50' E 031°55'0 0.1
2014-Jul-27 18:32N 46°50' E 031°55'0 0.1
2014-Jul-27 17:32N 46°50' E 031°55'0 0.0
2014-Jul-27 15:11N 46°50' E 031°55'0 0.0
2014-Jul-27 14:32N 46°50' E 031°55'0 0.0
2014-Jul-27 13:29N 46°50' E 031°55'5 5.2
2014-Jul-27 12:33N 46°46' E 031°54'52 5.1
2014-Jul-27 02:22N 45°59' E 031°22'8 8.5
2014-Jul-27 01:22N 45°52' E 031°31'9 7.6
2014-Jul-27 00:09N 45°46' E 031°39'256 8.6
2014-Jul-25 18:28N 42°27' E 035°24'  
2014-Jul-21 04:34N 44°29' E 036°27'  

Dump ship's entire track history